Mississippi River (Missouri), New Madrid (07024175)

StateMissouriCurrentPotential (582000 cfs)
RiverMississippi RiverFlood - The river is flooding. Obstacles can be treacherous or deadly. The river should be avoided at this stage for casual trips and definitely for the inexperienced. Trips should be attempted only with protective gear and equipment.Flood(none)
Updated2019-10-13 20:00 (54 minutes ago)High - The river is high and potentially dangerous, especially for the young and / or inexperienced. Normal stream obstacles are sometimes difficult to navigate. Extended distances can be attempted, but canoe travel may not be advisable.High(none)
Discharge582000 cfs (median: 392000 cfs)Good - Conditions are ideal for a canoe or kayak. Boats typically will drag on fewer than one-quarter of riffles, if at all, and portages are unnecessary or rare. Normal float lengths can be attempted without a problem.Good(none)
Height20.16 feetLow - River is low but can still be floated. Some riffles are okay but most come with significant dragging and might need a portage. Float lengths should be reduced to accommodate low flow, dragging, and portages.Low(none)
TrendSteady (rising over 24 hours)Poor - River is too low to float comfortably. Most or all riffles will drag or must be portaged and some obstacles (such as slick shelf rock) cause undue problems. Avoid the river at this stage for casual paddling trips.Poor(none)
USGSExternal icon USGS Site for New Madrid (07024175)LocationExternal icon Google Maps

Trending Data

Plot Image
ObservationHeightDischargeMaximum
Discharge
Minimum
Discharge
Mean
Discharge
P05P10P20P25P50
(Median)
P75P80P90P95
2019-10-13 20:00 20.16 582000 442000 (2017) 341000 (2018) 392000 392000
2019-10-13 19:00 20.16 582000 442000 (2017) 341000 (2018) 392000 392000
2019-10-13 18:00 20.15 582000 442000 (2017) 341000 (2018) 392000 392000
2019-10-13 17:00 19.76 572000 442000 (2017) 341000 (2018) 392000 392000
2019-10-13 16:00 20.15 582000 442000 (2017) 341000 (2018) 392000 392000
2019-10-13 15:00 20.14 582000 442000 (2017) 341000 (2018) 392000 392000
2019-10-13 14:00 20.12 581000 442000 (2017) 341000 (2018) 392000 392000
2019-10-13 13:00 20.15 582000 442000 (2017) 341000 (2018) 392000 392000
2019-10-13 12:00 20.15 582000 442000 (2017) 341000 (2018) 392000 392000
2019-10-13 11:00 20.19 583000 442000 (2017) 341000 (2018) 392000 392000
2019-10-13 10:00 19.98 578000 442000 (2017) 341000 (2018) 392000 392000
2019-10-13 09:00 20.17 583000 442000 (2017) 341000 (2018) 392000 392000
2019-10-13 08:00 20.19 583000 442000 (2017) 341000 (2018) 392000 392000
2019-10-13 07:00 20.20 583000 442000 (2017) 341000 (2018) 392000 392000
2019-10-13 06:00 19.94 576000 442000 (2017) 341000 (2018) 392000 392000
2019-10-13 05:00 20.21 584000 442000 (2017) 341000 (2018) 392000 392000
2019-10-13 04:00 20.18 583000 442000 (2017) 341000 (2018) 392000 392000
2019-10-13 03:00 20.18 583000 442000 (2017) 341000 (2018) 392000 392000
2019-10-13 02:00 20.15 582000 442000 (2017) 341000 (2018) 392000 392000
2019-10-13 01:00 20.16 582000 442000 (2017) 341000 (2018) 392000 392000
2019-10-13 00:00 20.11 581000 442000 (2017) 341000 (2018) 392000 392000
2019-10-12 23:00 20.08 580000 435000 (2017) 303000 (2018) 369000 369000
2019-10-12 22:00 20.05 579000 435000 (2017) 303000 (2018) 369000 369000
2019-10-12 21:00 20.03 579000 435000 (2017) 303000 (2018) 369000 369000
2019-10-12 20:00 20.03 579000 435000 (2017) 303000 (2018) 369000 369000
2019-10-12 19:00 2 578000 435000 (2017) 303000 (2018) 369000 369000
2019-10-12 18:00 19.99 578000 435000 (2017) 303000 (2018) 369000 369000
2019-10-12 17:00 19.96 577000 435000 (2017) 303000 (2018) 369000 369000
2019-10-12 16:00 19.93 576000 435000 (2017) 303000 (2018) 369000 369000
2019-10-12 15:00 19.72 571000 435000 (2017) 303000 (2018) 369000 369000
2019-10-12 14:00 19.87 575000 435000 (2017) 303000 (2018) 369000 369000
2019-10-12 13:00 19.90 575000 435000 (2017) 303000 (2018) 369000 369000
2019-10-12 12:00 19.89 575000 435000 (2017) 303000 (2018) 369000 369000
2019-10-12 11:00 19.89 575000 435000 (2017) 303000 (2018) 369000 369000
2019-10-12 10:00 19.88 575000 435000 (2017) 303000 (2018) 369000 369000
2019-10-12 09:00 19.90 575000 435000 (2017) 303000 (2018) 369000 369000
2019-10-12 08:00 19.90 575000 435000 (2017) 303000 (2018) 369000 369000
2019-10-12 07:00 19.90 575000 435000 (2017) 303000 (2018) 369000 369000
2019-10-12 06:00 19.92 576000 435000 (2017) 303000 (2018) 369000 369000
2019-10-12 05:00 19.92 576000 435000 (2017) 303000 (2018) 369000 369000
2019-10-12 04:00 19.95 577000 435000 (2017) 303000 (2018) 369000 369000
2019-10-12 03:00 19.96 577000 435000 (2017) 303000 (2018) 369000 369000
2019-10-12 02:00 19.96 577000 435000 (2017) 303000 (2018) 369000 369000
2019-10-12 01:00 19.99 578000 435000 (2017) 303000 (2018) 369000 369000
2019-10-12 00:00 20.02 579000 435000 (2017) 303000 (2018) 369000 369000
2019-10-11 23:00 20.02 579000 418000 (2017) 274000 (2018) 346000 346000
2019-10-11 22:00 20.05 579000 418000 (2017) 274000 (2018) 346000 346000
2019-10-11 21:00 20.05 579000 418000 (2017) 274000 (2018) 346000 346000
2019-10-11 20:00 20.10 581000 418000 (2017) 274000 (2018) 346000 346000
2019-10-11 19:00 20.12 581000 418000 (2017) 274000 (2018) 346000 346000
2019-10-11 18:00 20.14 582000 418000 (2017) 274000 (2018) 346000 346000
2019-10-11 17:00 20.16 582000 418000 (2017) 274000 (2018) 346000 346000
2019-10-11 16:00 20.18 583000 418000 (2017) 274000 (2018) 346000 346000
2019-10-11 15:00 20.10 581000 418000 (2017) 274000 (2018) 346000 346000
2019-10-11 14:00 20.15 582000 418000 (2017) 274000 (2018) 346000 346000
2019-10-11 13:00 20.26 585000 418000 (2017) 274000 (2018) 346000 346000
2019-10-11 12:00 19.90 575000 418000 (2017) 274000 (2018) 346000 346000
2019-10-11 11:00 20.37 588000 418000 (2017) 274000 (2018) 346000 346000
2019-10-11 10:00 20.34 587000 418000 (2017) 274000 (2018) 346000 346000
2019-10-11 09:00 19.65 569000 418000 (2017) 274000 (2018) 346000 346000
2019-10-11 08:00 20.32 587000 418000 (2017) 274000 (2018) 346000 346000
2019-10-11 07:00 19.90 575000 418000 (2017) 274000 (2018) 346000 346000
2019-10-11 06:00 20.29 586000 418000 (2017) 274000 (2018) 346000 346000
2019-10-11 05:00 20.31 587000 418000 (2017) 274000 (2018) 346000 346000
2019-10-11 04:00 20.31 587000 418000 (2017) 274000 (2018) 346000 346000
2019-10-11 03:00 20.28 586000 418000 (2017) 274000 (2018) 346000 346000
2019-10-11 02:00 19.93 576000 418000 (2017) 274000 (2018) 346000 346000
2019-10-11 01:00 20.25 585000 418000 (2017) 274000 (2018) 346000 346000
2019-10-11 00:00 19.92 576000 418000 (2017) 274000 (2018) 346000 346000
2019-10-10 23:00 20.26 585000 406000 (2017) 221000 (2018) 314000 314000
2019-10-10 22:00 19.89 575000 406000 (2017) 221000 (2018) 314000 314000
2019-10-10 21:00 20.26 585000 406000 (2017) 221000 (2018) 314000 314000
2019-10-10 20:00 20.27 585000 406000 (2017) 221000 (2018) 314000 314000
2019-10-10 19:00 20.26 585000 406000 (2017) 221000 (2018) 314000 314000
2019-10-10 18:00 20.25 585000 406000 (2017) 221000 (2018) 314000 314000
2019-10-10 17:00 20.19 583000 406000 (2017) 221000 (2018) 314000 314000
2019-10-10 16:00 20.13 582000 406000 (2017) 221000 (2018) 314000 314000
2019-10-10 15:00 19.94 576000 406000 (2017) 221000 (2018) 314000 314000
2019-10-10 14:00 20.10 581000 406000 (2017) 221000 (2018) 314000 314000
2019-10-10 13:00 19.86 574000 406000 (2017) 221000 (2018) 314000 314000
2019-10-10 12:00 20.05 579000 406000 (2017) 221000 (2018) 314000 314000
2019-10-10 11:00 20.04 579000 406000 (2017) 221000 (2018) 314000 314000
2019-10-10 10:00 19.99 578000 406000 (2017) 221000 (2018) 314000 314000
2019-10-10 09:00 20.01 578000 406000 (2017) 221000 (2018) 314000 314000
2019-10-10 08:00 19.82 573000 406000 (2017) 221000 (2018) 314000 314000
2019-10-10 07:00 19.97 577000 406000 (2017) 221000 (2018) 314000 314000
2019-10-10 06:00 19.77 572000 406000 (2017) 221000 (2018) 314000 314000
2019-10-10 05:00 19.95 577000 406000 (2017) 221000 (2018) 314000 314000
2019-10-10 04:00 19.94 576000 406000 (2017) 221000 (2018) 314000 314000
2019-10-10 03:00 19.90 575000 406000 (2017) 221000 (2018) 314000 314000
2019-10-10 02:00 19.90 575000 406000 (2017) 221000 (2018) 314000 314000
2019-10-10 01:00 19.84 574000 406000 (2017) 221000 (2018) 314000 314000
2019-10-10 00:00 19.63 568000 406000 (2017) 221000 (2018) 314000 314000
2019-10-09 23:00 19.80 573000 404000 (2017) 188000 (2018) 296000 296000
2019-10-09 22:00 19.79 572000 404000 (2017) 188000 (2018) 296000 296000
2019-10-09 21:00 19.75 571000 404000 (2017) 188000 (2018) 296000 296000
2019-10-09 20:00 19.73 571000 404000 (2017) 188000 (2018) 296000 296000
2019-10-09 19:00 19.72 571000 404000 (2017) 188000 (2018) 296000 296000
2019-10-09 18:00 19.71 570000 404000 (2017) 188000 (2018) 296000 296000
2019-10-09 17:00 19.68 569000 404000 (2017) 188000 (2018) 296000 296000
2019-10-09 16:00 19.64 568000 404000 (2017) 188000 (2018) 296000 296000
2019-10-09 15:00 19.63 568000 404000 (2017) 188000 (2018) 296000 296000
2019-10-09 14:00 19.62 568000 404000 (2017) 188000 (2018) 296000 296000
2019-10-09 13:00 19.61 568000 404000 (2017) 188000 (2018) 296000 296000
2019-10-09 12:00 19.57 567000 404000 (2017) 188000 (2018) 296000 296000
2019-10-09 11:00 19.57 567000 404000 (2017) 188000 (2018) 296000 296000
2019-10-09 10:00 19.58 567000 404000 (2017) 188000 (2018) 296000 296000
2019-10-09 09:00 19.55 566000 404000 (2017) 188000 (2018) 296000 296000
2019-10-09 08:00 19.52 565000 404000 (2017) 188000 (2018) 296000 296000
2019-10-09 07:00 19.52 565000 404000 (2017) 188000 (2018) 296000 296000
2019-10-09 06:00 19.50 565000 404000 (2017) 188000 (2018) 296000 296000
2019-10-09 05:00 19.51 565000 404000 (2017) 188000 (2018) 296000 296000
2019-10-09 04:00 19.50 565000 404000 (2017) 188000 (2018) 296000 296000
2019-10-09 03:00 19.47 564000 404000 (2017) 188000 (2018) 296000 296000
2019-10-09 02:00 19.47 564000 404000 (2017) 188000 (2018) 296000 296000
2019-10-09 01:00 19.46 564000 404000 (2017) 188000 (2018) 296000 296000
2019-10-09 00:00 19.43 563000 404000 (2017) 188000 (2018) 296000 296000
2019-10-08 23:00 19.43 563000 406000 (2017) 182000 (2018) 294000 294000
2019-10-08 22:00 19.40 562000 406000 (2017) 182000 (2018) 294000 294000
2019-10-08 21:00 19.41 562000 406000 (2017) 182000 (2018) 294000 294000
2019-10-08 20:00 19.39 562000 406000 (2017) 182000 (2018) 294000 294000
2019-10-08 19:00 19.37 561000 406000 (2017) 182000 (2018) 294000 294000
2019-10-08 18:00 19.35 561000 406000 (2017) 182000 (2018) 294000 294000
2019-10-08 17:00 19.31 560000 406000 (2017) 182000 (2018) 294000 294000
2019-10-08 16:00 19.27 559000 406000 (2017) 182000 (2018) 294000 294000
2019-10-08 15:00 19.28 559000 406000 (2017) 182000 (2018) 294000 294000
2019-10-08 14:00 19.26 558000 406000 (2017) 182000 (2018) 294000 294000
2019-10-08 13:00 19.21 557000 406000 (2017) 182000 (2018) 294000 294000
2019-10-08 12:00 19.13 555000 406000 (2017) 182000 (2018) 294000 294000
2019-10-08 11:00 18.94 550000 406000 (2017) 182000 (2018) 294000 294000
2019-10-08 10:00 19.18 556000 406000 (2017) 182000 (2018) 294000 294000
2019-10-08 09:00 19.21 557000 406000 (2017) 182000 (2018) 294000 294000
2019-10-08 08:00 19.20 557000 406000 (2017) 182000 (2018) 294000 294000
2019-10-08 07:00 19.20 557000 406000 (2017) 182000 (2018) 294000 294000
2019-10-08 06:00 19.20 557000 406000 (2017) 182000 (2018) 294000 294000
2019-10-08 05:00 19.18 556000 406000 (2017) 182000 (2018) 294000 294000
2019-10-08 04:00 19.18 556000 406000 (2017) 182000 (2018) 294000 294000
2019-10-08 03:00 19.16 556000 406000 (2017) 182000 (2018) 294000 294000
2019-10-08 02:00 19.16 556000 406000 (2017) 182000 (2018) 294000 294000
2019-10-08 01:00 19.14 555000 406000 (2017) 182000 (2018) 294000 294000
2019-10-08 00:00 19.15 555000 406000 (2017) 182000 (2018) 294000 294000
2019-10-07 23:00 19.15 555000 418000 (2017) 174000 (2018) 296000 296000
2019-10-07 22:00 19.13 555000 418000 (2017) 174000 (2018) 296000 296000
2019-10-07 21:00 19.14 555000 418000 (2017) 174000 (2018) 296000 296000
2019-10-07 20:00 19.16 556000 418000 (2017) 174000 (2018) 296000 296000
2019-10-07 19:00 19.14 555000 418000 (2017) 174000 (2018) 296000 296000
2019-10-07 18:00 19.12 555000 418000 (2017) 174000 (2018) 296000 296000
2019-10-07 17:00 19.14 555000 418000 (2017) 174000 (2018) 296000 296000
2019-10-07 16:00 19.13 555000 418000 (2017) 174000 (2018) 296000 296000
2019-10-07 15:00 19.07 553000 418000 (2017) 174000 (2018) 296000 296000
2019-10-07 14:00 19.12 555000 418000 (2017) 174000 (2018) 296000 296000
2019-10-07 13:00 19.11 554000 418000 (2017) 174000 (2018) 296000 296000
2019-10-07 12:00 19.06 553000 418000 (2017) 174000 (2018) 296000 296000
2019-10-07 11:00 19.10 554000 418000 (2017) 174000 (2018) 296000 296000
2019-10-07 10:00 19.12 555000 418000 (2017) 174000 (2018) 296000 296000
2019-10-07 09:00 19.12 555000 418000 (2017) 174000 (2018) 296000 296000
2019-10-07 08:00 19.13 555000 418000 (2017) 174000 (2018) 296000 296000
2019-10-07 07:00 19.13 555000 418000 (2017) 174000 (2018) 296000 296000
2019-10-07 06:00 19.12 555000 418000 (2017) 174000 (2018) 296000 296000
2019-10-07 05:00 19.09 554000 418000 (2017) 174000 (2018) 296000 296000
2019-10-07 04:00 19.12 555000 418000 (2017) 174000 (2018) 296000 296000
2019-10-07 03:00 19.09 554000 418000 (2017) 174000 (2018) 296000 296000
2019-10-07 02:00 19.12 555000 418000 (2017) 174000 (2018) 296000 296000
2019-10-07 01:00 19.12 555000 418000 (2017) 174000 (2018) 296000 296000
2019-10-07 00:00 19.10 554000 418000 (2017) 174000 (2018) 296000 296000
2019-10-06 23:00 19.07 553000 435000 (2017) 167000 (2018) 301000 301000
2019-10-06 22:00 19.09 554000 435000 (2017) 167000 (2018) 301000 301000
2019-10-06 21:00 19.03 552000 435000 (2017) 167000 (2018) 301000 301000
2019-10-06 20:00 19.02 552000 435000 (2017) 167000 (2018) 301000 301000
2019-10-06 19:00 18.99 551000 435000 (2017) 167000 (2018) 301000 301000
2019-10-06 18:00 18.98 551000 435000 (2017) 167000 (2018) 301000 301000
2019-10-06 17:00 18.96 550000 435000 (2017) 167000 (2018) 301000 301000
2019-10-06 16:00 18.95 550000 435000 (2017) 167000 (2018) 301000 301000
2019-10-06 15:00 18.93 550000 435000 (2017) 167000 (2018) 301000 301000
2019-10-06 14:00 18.94 550000 435000 (2017) 167000 (2018) 301000 301000
2019-10-06 13:00 18.91 549000 435000 (2017) 167000 (2018) 301000 301000
2019-10-06 12:00 18.88 548000 435000 (2017) 167000 (2018) 301000 301000
2019-10-06 11:00 18.92 549000 435000 (2017) 167000 (2018) 301000 301000
2019-10-06 10:00 18.88 548000 435000 (2017) 167000 (2018) 301000 301000
2019-10-06 09:00 18.86 548000 435000 (2017) 167000 (2018) 301000 301000
2019-10-06 08:00 18.84 547000 435000 (2017) 167000 (2018) 301000 301000
2019-10-06 07:00 18.79 546000 435000 (2017) 167000 (2018) 301000 301000
2019-10-06 06:00 18.79 546000 435000 (2017) 167000 (2018) 301000 301000
2019-10-06 05:00 18.75 545000 435000 (2017) 167000 (2018) 301000 301000
2019-10-06 04:00 18.71 544000 435000 (2017) 167000 (2018) 301000 301000
2019-10-06 03:00 18.68 543000 435000 (2017) 167000 (2018) 301000 301000
2019-10-06 02:00 18.61 541000 435000 (2017) 167000 (2018) 301000 301000
2019-10-06 01:00 18.63 542000 435000 (2017) 167000 (2018) 301000 301000
2019-10-06 00:00 18.55 540000 435000 (2017) 167000 (2018) 301000 301000

A total of 189 rows are displayed for years 2017 through 2018.

Trips for Mississippi River (Missouri), New Madrid (07024175)

DateStartEndDistanceConditionDischargeHeightFishingDetails

A total of 0 rows are displayed.

Condition Descriptions

Fishing Conditions

Fish Species

Notes

Classic Trip List

The classic River Trips application is still available for use. It is updated with the new system using a data retrofit. It is no longer maintained. The original River Trips application is no longer updated (as of 1 Dec 2016) but can be checked for errors or for the condition of the data before it was converted to the new system.